Flag for Falkland Islands Weather past 2 weeks in Stanley, Falkland Islands

Now
48 °F

Passing clouds.


Feels Like: 40 °F
Forecast: N/A
Wind: 29 mph from Southwest

Location: Mount Pleasant Airport

Current Time: Jan 28, 2015 at 8:02:13 PM

Latest Report: Jan 28, 2015 at 6:50 PM


Visibility: N/A

Pressure: 29.83 "Hg

Humidity: 58%

Dew point: 34 °F

Location of StanleyLocation

Historic Weather in Stanley — Graph

°F

Stanley temperature yesterday

Maximum temperature yesterday: 54 °F (at 2:50 PM)
Minimum temperature yesterday: 45 °F (at 12:50 AM)
Average temperature yesterday: 49 °F

Past Weeks' High & Low Weather Summary

 TemperatureHumidityPressure
High77 °F (Jan 22, 1:50 PM)100% (Jan 13, 11:50 PM)29.89 "Hg (Jan 13, 11:50 PM)
Low36 °F (Jan 18, 2:50 AM)34% (Jan 22, 5:50 PM)29.21 "Hg (Jan 15, 1:50 PM)
Average49 °F75%29.65 "Hg
* Reported Jan 13 6:50 PM — Jan 28 6:50 PM, Stanley, Weather by CustomWeather, © 2014

Note: Actual official high and low records may vary slightly from our data, if they occured in-between our weather recording intervals... More about our weather records

Advertising

Stanley weather history for previous 24 hours

 ConditionsComfort  
Time TempWeatherWind HumidityBarometerVisibility
6:50 PM
Jan 28
48 °FPassing clouds.29 mph58%29.83 "HgN/A
5:50 PM48 °FPassing clouds.32 mph62%29.80 "HgN/A
4:50 PM48 °FPassing clouds.31 mph62%29.77 "HgN/A
3:50 PM50 °FPassing clouds.35 mph58%29.71 "HgN/A
2:50 PM48 °FPassing clouds.35 mph66%29.68 "HgN/A
1:50 PM50 °FPassing clouds.36 mph58%29.68 "HgN/A
12:50 PM48 °FScattered clouds.37 mph71%29.62 "HgN/A
11:50 AM46 °FMore clouds than sun.32 mph82%29.62 "HgN/A
10:50 AM46 °FSprinkles. Mostly cloudy.35 mph87%29.59 "HgN/A
9:50 AM46 °FSprinkles. Mostly cloudy.33 mph87%29.56 "HgN/A
8:50 AM46 °FOvercast.38 mph82%29.53 "HgN/A
7:50 AM46 °FBroken clouds.37 mph87%29.50 "HgN/A
6:50 AM45 °FLight rain. Partly sunny.36 mph93%29.45 "HgN/A
5:50 AM45 °FLight rain. Partly sunny.33 mph93%29.42 "HgN/A
4:50 AM45 °FRain. Passing clouds.32 mph100%29.39 "Hg4 mi
3:50 AM45 °FRain. Passing clouds.30 mph100%29.36 "Hg2 mi
3:04 AM45 °FRain. Partly cloudy.29 mph100%29.33 "Hg1 mi
2:50 AM46 °FLight rain. Partly cloudy.29 mph93%29.33 "Hg2 mi
1:50 AM46 °FPartly cloudy.28 mph100%29.33 "Hg3 mi
12:50 AM46 °FPartly cloudy.18 mph100%29.30 "Hg1 mi
11:50 PM
Jan 27
48 °FPassing clouds.21 mph100%29.30 "Hg1 mi
10:50 PM50 °FPassing clouds.16 mph100%29.27 "Hg1 mi
9:50 PM52 °FPassing clouds.10 mph100%29.24 "HgN/A
8:50 PM52 °FPartly sunny.3 mph94%29.24 "HgN/A
Weather by CustomWeather, © 2014

See weather overviewHow to use our weather pages